Mount Holly, NJ

12:50 AM EST on December 16, 2019 (GMT -0500)
South Jersey Regional

Weather History for KVAY - October, 2019

Change the Weather History Date:

Thursday, October 17, 2019

  Actual Average (KPNE) Record (KPNE)
Temperature  
Mean Temperature 56 °F -  
Max Temperature 61 °F 62 °F 82 °F (2016)
Min Temperature 52 °F 43 °F 39 °F (2012)
Degree Days  
Heating Degree Days 9    
Growing Degree Days 6 (Base 50)    
Moisture  
Dew Point 39 °F    
Average Humidity 54    
Maximum Humidity 61    
Minimum Humidity 42    
Precipitation  
Precipitation 0.00 in - - ()
Sea Level Pressure  
Sea Level Pressure 29.50 in    
Wind  
Wind Speed 14 mph (West)    
Max Wind Speed 23 mph    
Max Gust Speed 38 mph    
Visibility 10 miles    
Events      
Averages and records for this station are not official NWS values.
T = Trace of Precipitation, MM = Missing Value Source: NWS Daily Summary

Daily Weather History Graph

Daily Weather History Graph

Search for Another Location

Airport or City:

Astronomy

Oct. 17, 2019 Rise Set
Actual Time 7:11 AM EDT 6:17 PM EDT
Civil Twilight 6:44 AM EDT 6:44 PM EDT
Nautical Twilight 6:12 AM EDT 7:15 PM EDT
Astronomical Twilight 5:41 AM EDT 7:47 PM EDT
Moon 8:47 PM EDT (10/17) 10:40 AM EDT (10/17)
Length of Visible Light 12h 00m
Length of Day
11h 05m
Waning Gibbous, 87% of the Moon is Illuminated
Oct 17
Waning Gibbous
Oct 21
Last Quarter
Oct 27
New
Nov 4
First Quarter
Nov 12
Full

Hourly Weather History & Observations

Time (EDT) Temp. Dew Point Humidity Pressure Visibility Wind Dir Wind Speed Gust Speed Precip Events Conditions
12:54 AM 52.0 °F 39.0 °F 61% 29.39 in 10.0 mi WNW 13.8 mph 26.5 mph N/A   Partly Cloudy
1:54 AM 53.1 °F 39.9 °F 61% 29.41 in 10.0 mi West 12.7 mph 28.8 mph N/A   Overcast
2:54 AM 54.0 °F 39.9 °F 59% 29.40 in 10.0 mi West 13.8 mph 27.6 mph N/A   Overcast
3:54 AM 53.1 °F 39.9 °F 61% 29.40 in 10.0 mi West 9.2 mph 18.4 mph N/A   Scattered Clouds
4:54 AM 53.1 °F 39.9 °F 61% 29.39 in 10.0 mi West 11.5 mph 20.7 mph N/A   Overcast
5:54 AM 53.1 °F 39.9 °F 61% 29.40 in 10.0 mi WSW 16.1 mph 24.2 mph N/A   Clear
6:54 AM 53.1 °F 37.9 °F 57% 29.42 in 10.0 mi West 17.3 mph 25.3 mph N/A   Overcast
7:54 AM 53.1 °F 37.9 °F 57% 29.44 in 10.0 mi West 12.7 mph 26.5 mph N/A   Overcast
8:54 AM 53.1 °F 37.9 °F 57% 29.44 in 10.0 mi WSW 12.7 mph 25.3 mph N/A   Mostly Cloudy
9:54 AM 55.0 °F 37.0 °F 51% 29.45 in 10.0 mi West 19.6 mph 36.8 mph N/A   Overcast
10:54 AM 55.0 °F 37.9 °F 53% 29.47 in 10.0 mi West 16.1 mph 29.9 mph N/A   Overcast
11:54 AM 57.9 °F 37.9 °F 47% 29.45 in 10.0 mi West 23.0 mph 38.0 mph N/A   Scattered Clouds
12:54 PM 60.1 °F 37.0 °F 42% 29.46 in 10.0 mi West 20.7 mph 36.8 mph N/A   Scattered Clouds
1:54 PM 59.0 °F 37.0 °F 44% 29.47 in 10.0 mi WNW 12.7 mph 25.3 mph N/A   Overcast
2:54 PM 57.9 °F 37.0 °F 46% 29.49 in 10.0 mi West 19.6 mph 36.8 mph N/A   Overcast
3:54 PM 57.9 °F 37.9 °F 47% 29.51 in 10.0 mi West 16.1 mph 29.9 mph N/A   Overcast
4:54 PM 57.0 °F 37.9 °F 49% 29.53 in 10.0 mi West 13.8 mph 24.2 mph N/A   Overcast
5:54 PM 57.0 °F 37.9 °F 49% 29.56 in 10.0 mi West 16.1 mph 29.9 mph N/A   Overcast
6:54 PM 55.9 °F 39.0 °F 53% 29.59 in 10.0 mi West 12.7 mph 23.0 mph N/A   Overcast
7:54 PM 55.9 °F 39.0 °F 53% 29.62 in 10.0 mi West 16.1 mph 29.9 mph N/A   Overcast
8:54 PM 54.0 °F 39.0 °F 57% 29.65 in 10.0 mi West 15.0 mph 19.6 mph N/A   Scattered Clouds
9:54 PM 54.0 °F 39.9 °F 59% 29.68 in 10.0 mi West 15.0 mph 21.9 mph N/A   Scattered Clouds
10:54 PM 53.1 °F 39.0 °F 59% 29.70 in 10.0 mi West 10.4 mph 20.7 mph N/A   Partly Cloudy
11:54 PM 52.0 °F 39.0 °F 61% 29.71 in 10.0 mi West 6.9 mph 18.4 mph N/A   Clear